FW4559 Weather Reports


Display with metric or nautical units.
time (UTC)temp
F
wind
direction
speed
MPH
gust
MPH
rain 1hr
in
rain 24hr
in
rain mn
in
humidity
%
barometer
mb
20260903183521 89 198 2.0 6.0 0.00 0.00 0.00 55 1016.5
20260903183020 89 214 2.0 6.0 0.00 0.00 0.00 57 1016.6
20260903182522 89 139 2.0 6.0 0.00 0.00 0.00 58 1016.5
20260903182020 89 239 1.0 6.0 0.00 0.00 0.00 55 1016.8
20260903181519 89 195 2.0 4.0 0.00 0.00 0.00 54 1016.8
20260903181019 89 193 1.0 4.0 0.00 0.00 0.00 56 1016.9
20260903180519 89 200 1.0 9.0 0.00 0.00 0.00 54 1016.9
20260903180018 88 182 1.0 9.0 0.00 0.00 0.00 57 1016.9
20260903175518 89 235 4.0 8.0 0.00 0.00 0.00 52 1017.0
20260903175017 89 175 1.0 6.0 0.00 0.00 0.00 57 1017.0
20260903174516 90 182 2.0 5.0 0.00 0.00 0.00 54 1017.1
20260903174016 90 245 0.0 3.0 0.00 0.00 0.00 52 1017.1
20260903173514 91 127 0.0 2.0 0.00 0.00 0.00 49 1017.3
20260903173018 90 105 0.0 3.0 0.00 0.00 0.00 50 1017.3
20260903172515 89 226 1.0 3.0 0.00 0.00 0.00 49 1017.2
20260903172012 88 349 0.0 3.0 0.00 0.00 0.00 52 1017.3
20260903171511 88 348 0.0 3.0 0.00 0.00 0.00 52 1017.3
20260903171011 88 72 1.0 3.0 0.00 0.00 0.00 50 1017.4
20260903170510 88 139 0.0 3.0 0.00 0.00 0.00 53 1017.4
20260903170012 89 7 0.0 3.0 0.00 0.00 0.00 53 1017.5
20260903165509 89 153 0.0 1.0 0.00 0.00 0.00 55 1017.5
20260903165008 88 154 0.0 2.0 0.00 0.00 0.00 56 1017.6
20260903164509 87 70 0.0 3.0 0.00 0.00 0.00 53 1017.6
20260903164007 88 150 1.0 3.0 0.00 0.00 0.00 53 1017.7
20260903163507 87 212 0.0 3.0 0.00 0.00 0.00 56 1017.7
20260903163005 86 54 0.0 3.0 0.00 0.00 0.00 55 1017.8
20260903162504 86 101 1.0 3.0 0.00 0.00 0.00 55 1017.9
20260903162004 85 210 1.0 3.0 0.00 0.00 0.00 55 1017.8
20260903161503 84 111 1.0 4.0 0.00 0.00 0.00 59 1017.8
20260903161003 84 95 1.0 4.0 0.00 0.00 0.00 58 1017.8
20260903160504 85 131 0.0 6.0 0.00 0.00 0.00 58 1017.8
20260903160003 85 98 1.0 6.0 0.00 0.00 0.00 57 1017.9
20260903155601 86 160 0.0 3.0 0.00 0.00 0.00 57 1017.9
20260903155001 87 345 0.0 2.0 0.00 0.00 0.00 59 1018.0
20260903154600 86 92 0.0 3.0 0.00 0.00 0.00 58 1018.1
20260903154100 86 354 0.0 3.0 0.00 0.00 0.00 58 1018.1
20260903153559 86 184 0.0 2.0 0.00 0.00 0.00 59 1018.1
20260903153056 85 103 0.0 3.0 0.00 0.00 0.00 62 1018.2
20260903152555 84 204 0.0 3.0 0.00 0.00 0.00 64 1018.1
20260903152058 84 97 0.0 2.0 0.00 0.00 0.00 64 1018.2
20260903151555 83 13 0.0 5.0 0.00 0.00 0.00 64 1018.1
20260903151054 84 11 1.0 5.0 0.00 0.00 0.00 63 1018.1
20260903150554 82 116 0.0 2.0 0.00 0.00 0.00 67 1018.0
20260903150055 81 101 0.0 3.0 0.00 0.00 0.00 65 1018.1
20260903145554 81 36 1.0 3.0 0.00 0.00 0.00 64 1018.0
20260903145053 81 102 0.0 3.0 0.00 0.00 0.00 67 1018.0
20260903144553 81 55 0.0 3.0 0.00 0.00 0.00 66 1018.1
20260903144055 81 347 0.0 2.0 0.00 0.00 0.00 68 1018.0
20260903143552 81 346 0.0 5.0 0.00 0.00 0.00 67 1018.1
20260903143107 82 359 2.0 5.0 0.00 0.00 0.00 63 1018.1
20260903142552 84 352 0.0 2.0 0.00 0.00 0.00 64 1018.0
20260903142051 84 244 0.0 1.0 0.00 0.00 0.00 67 1018.1
20260903141550 83 244 0.0 1.0 0.00 0.00 0.00 66 1018.0
20260903141050 82 244 0.0 1.0 0.00 0.00 0.00 71 1018.1
20260903140548 82 244 0.0 1.0 0.00 0.00 0.00 73 1018.0
20260903140046 82 244 0.0 1.0 0.00 0.00 0.00 72 1018.0
20260903135546 81 244 0.0 0.0 0.00 0.00 0.00 75 1018.0
20260903135044 81 244 0.0 1.0 0.00 0.00 0.00 76 1018.1
20260903134542 80 244 0.0 1.0 0.00 0.00 0.00 79 1018.0
20260903134040 78 244 0.0 1.0 0.00 0.00 0.00 82 1018.1
20260903133539 78 244 0.0 0.0 0.00 0.00 0.00 84 1018.1
20260903133038 77 244 0.0 0.0 0.00 0.00 0.00 86 1018.1
20260903132537 76 244 0.0 0.0 0.00 0.00 0.00 88 1018.1
20260903132035 75 244 0.0 0.0 0.00 0.00 0.00 91 1018.2
20260903131534 73 244 0.0 0.0 0.00 0.00 0.00 93 1018.2
20260903131032 72 244 0.0 0.0 0.00 0.00 0.00 96 1018.3
20260903130531 71 244 0.0 0.0 0.00 0.00 0.00 95 1018.3
20260903130028 70 244 0.0 0.0 0.00 0.00 0.00 95 1018.4
20260903125528 68 244 0.0 0.0 0.00 0.00 0.00 96 1018.4
20260903125028 68 244 0.0 0.0 0.00 0.00 0.00 96 1018.5
20260903124534 69 244 0.0 0.0 0.00 0.00 0.00 96 1018.4
20260903124025 68 244 0.0 0.0 0.00 0.00 0.00 96 1018.5
20260903123526 67 244 0.0 0.0 0.00 0.00 0.00 96 1018.4
20260903123036 66 244 0.0 0.0 0.00 0.00 0.00 96 1018.4
20260903122525 64 244 0.0 0.0 0.00 0.00 0.00 96 1018.4
20260903122025 63 244 0.0 0.0 0.00 0.00 0.00 96 1018.4
20260903121532 63 244 0.0 0.0 0.00 0.00 0.00 96 1018.3
20260903121027 63 244 0.0 0.0 0.00 0.00 0.00 96 1018.3
20260903120524 63 244 0.0 0.0 0.00 0.00 0.00 96 1018.2
20260903120024 63 244 0.0 0.0 0.00 0.00 0.00 96 1018.1
20260903115523 62 244 0.0 0.0 0.00 0.00 0.00 96 1018.1
20260903115022 62 244 0.0 0.0 0.00 0.00 0.00 96 1018.1
20260903114521 62 244 0.0 0.0 0.00 0.00 0.00 96 1017.9
20260903114020 62 244 0.0 0.0 0.00 0.00 0.00 96 1017.9
20260903113520 62 244 0.0 0.0 0.00 0.00 0.00 96 1017.8
20260903113033 62 244 0.0 0.0 0.00 0.00 0.00 96 1017.8
20260903112518 62 244 0.0 0.0 0.00 0.00 0.00 96 1017.7
20260903112018 62 244 0.0 0.0 0.00 0.00 0.00 96 1017.7
20260903111520 62 244 0.0 0.0 0.00 0.00 0.00 96 1017.6
20260903111017 62 244 0.0 0.0 0.00 0.00 0.00 96 1017.6
20260903110516 62 244 0.0 0.0 0.00 0.00 0.00 96 1017.6
20260903110016 62 244 0.0 0.0 0.00 0.00 0.00 96 1017.5
20260903105515 62 244 0.0 0.0 0.00 0.00 0.00 96 1017.5
20260903105015 62 244 0.0 0.0 0.00 0.00 0.00 96 1017.5
20260903104514 62 244 0.0 0.0 0.00 0.00 0.00 96 1017.4
20260903104012 63 244 0.0 0.0 0.00 0.00 0.00 96 1017.4
20260903103513 63 244 0.0 0.0 0.00 0.00 0.00 96 1017.4
20260903103013 63 244 0.0 0.0 0.00 0.00 0.00 96 1017.4
20260903102511 62 244 0.0 0.0 0.00 0.00 0.00 96 1017.3
20260903102016 62 244 0.0 0.0 0.00 0.00 0.00 96 1017.3
20260903101512 62 244 0.0 0.0 0.00 0.00 0.00 96 1017.3
20260903101012 62 244 0.0 0.0 0.00 0.00 0.00 96 1017.3
20260903100512 62 244 0.0 0.0 0.00 0.00 0.00 96 1017.4
20260903100019 62 244 0.0 0.0 0.00 0.00 0.00 96 1017.3
20260903095512 62 244 0.0 0.0 0.00 0.00 0.00 96 1017.4
20260903095014 63 244 0.0 0.0 0.00 0.00 0.00 96 1017.4
20260903094509 63 244 0.0 0.0 0.00 0.00 0.00 96 1017.4
20260903094012 63 244 0.0 0.0 0.00 0.00 0.00 96 1017.4
20260903093508 63 244 0.0 0.0 0.00 0.00 0.00 96 1017.4
20260903093011 63 244 0.0 0.0 0.00 0.00 0.00 96 1017.4
20260903092509 63 244 0.0 0.0 0.00 0.00 0.00 96 1017.4
20260903092007 63 244 0.0 0.0 0.00 0.00 0.00 96 1017.4
20260903091516 64 244 0.0 0.0 0.00 0.00 0.00 96 1017.3
20260903091005 64 244 0.0 0.0 0.00 0.00 0.00 96 1017.4
20260903090505 64 244 0.0 0.0 0.00 0.00 0.00 96 1017.3
20260903090004 64 244 0.0 0.0 0.00 0.00 0.00 96 1017.4
20260903085504 64 244 0.0 0.0 0.00 0.00 0.00 96 1017.3
20260903085004 64 244 0.0 0.0 0.00 0.00 0.00 96 1017.3
20260903084508 64 244 0.0 0.0 0.00 0.00 0.00 96 1017.2
20260903084003 64 244 0.0 0.0 0.00 0.00 0.00 96 1017.1
20260903083504 64 244 0.0 0.0 0.00 0.00 0.00 96 1017.2
20260903083003 64 244 0.0 0.0 0.00 0.00 0.00 96 1017.2
20260903082504 64 244 0.0 0.0 0.00 0.00 0.00 96 1017.0
20260903082002 64 244 0.0 0.0 0.00 0.00 0.00 96 1017.0
20260903081506 64 244 0.0 0.0 0.00 0.00 0.00 96 1017.1
20260903081001 64 244 0.0 1.0 0.00 0.00 0.00 96 1017.1
20260903080500 64 244 0.0 1.0 0.00 0.00 0.00 96 1017.1
20260903080001 64 244 0.0 0.0 0.00 0.00 0.00 96 1017.1
20260903075501 64 244 0.0 0.0 0.00 0.00 0.00 96 1017.1
20260903075000 64 244 0.0 1.0 0.00 0.00 0.00 96 1017.0
20260903074600 64 244 0.0 1.0 0.00 0.00 0.00 96 1016.9
20260903074100 64 103 0.0 0.0 0.00 0.00 0.00 96 1016.9
20260903073559 65 103 0.0 0.0 0.00 0.00 0.00 96 1016.9
20260903073057 65 103 0.0 0.0 0.00 0.00 0.00 96 1016.9
20260903072601 65 103 0.0 0.0 0.00 0.00 0.00 96 1016.8
20260903072056 65 103 0.0 0.0 0.00 0.00 0.00 96 1016.8
20260903071556 65 103 0.0 0.0 0.00 0.00 0.00 96 1016.8
20260903071055 65 103 0.0 0.0 0.00 0.00 0.00 96 1016.7
20260903070554 66 103 0.0 0.0 0.00 0.00 0.00 96 1016.8
20260903070054 66 103 0.0 0.0 0.00 0.00 0.00 96 1016.8
20260903065556 66 103 0.0 1.0 0.00 0.00 0.00 96 1016.7
20260903065053 66 103 0.0 2.0 0.00 0.00 0.00 96 1016.8
20260903064553 66 103 0.0 2.0 0.00 0.00 0.00 96 1016.8
20260903064052 66 117 0.0 0.0 0.00 0.00 0.00 96 1016.9
20260903063551 66 117 0.0 0.0 0.00 0.00 0.00 96 1016.8
20260903063051 66 117 0.0 0.0 0.00 0.00 0.00 96 1016.9
20260903062551 66 117 0.0 0.0 0.00 0.00 0.00 96 1016.8
20260903062051 66 117 0.0 0.0 0.00 0.00 0.00 96 1016.8
20260903061554 66 117 0.0 1.0 0.00 0.00 0.00 96 1016.9
20260903061049 66 117 0.0 1.0 0.00 0.00 0.00 96 1016.9
20260903060549 66 117 0.0 0.0 0.00 0.00 0.00 96 1017.0
20260903060049 66 117 0.0 0.0 0.00 0.00 0.00 96 1017.0
20260903055550 66 117 0.0 0.0 0.00 0.00 0.00 96 1017.0
20260903055049 66 117 0.0 0.0 0.00 0.00 0.00 96 1017.1
20260903054549 66 117 0.0 0.0 0.00 0.00 0.00 96 1017.1
20260903054048 66 117 0.0 0.0 0.00 0.00 0.00 96 1017.1
20260903053547 66 117 0.0 0.0 0.00 0.00 0.00 96 1017.1
20260903053047 66 117 0.0 0.0 0.00 0.00 0.00 96 1017.1
20260903052546 66 117 0.0 0.0 0.00 0.00 0.00 96 1017.3
20260903052046 66 117 0.0 0.0 0.00 0.00 0.00 96 1017.2
20260903051545 66 117 0.0 0.0 0.00 0.00 0.00 96 1017.3
20260903051044 66 117 0.0 0.0 0.00 0.00 0.00 96 1017.3
20260903050546 67 117 0.0 0.0 0.00 0.00 0.00 96 1017.4
20260903050043 67 117 0.0 0.0 0.00 0.00 0.00 95 1017.4
20260903045544 67 117 0.0 0.0 0.00 0.00 0.00 95 1017.4
20260903045043 67 117 0.0 0.0 0.00 0.00 0.00 95 1017.5
20260903044542 68 117 0.0 0.0 0.00 0.00 0.00 96 1017.4
20260903044044 68 117 0.0 0.0 0.00 0.00 0.00 96 1017.4
20260903043540 68 117 0.0 0.0 0.00 0.00 0.00 95 1017.4
20260903043044 67 117 0.0 0.0 0.00 0.00 0.00 96 1017.4
20260903042539 67 117 0.0 0.0 0.00 0.00 0.00 96 1017.4
20260903042040 67 117 0.0 0.0 0.00 0.00 0.00 95 1017.5
20260903041543 67 117 0.0 0.0 0.00 0.00 0.00 95 1017.6
20260903041036 67 117 0.0 0.0 0.00 0.00 0.00 95 1017.6
20260903040536 67 117 0.0 0.0 0.00 0.00 0.00 95 1017.6
20260903040035 68 117 0.0 0.0 0.00 0.00 0.00 95 1017.6
20260903035534 68 117 0.0 0.0 0.00 0.00 0.00 95 1017.6
20260903035034 68 117 0.0 0.0 0.00 0.00 0.00 95 1017.7
20260903034542 68 117 0.0 0.0 0.00 0.00 0.00 95 1017.7
20260903034034 68 117 0.0 0.0 0.00 0.00 0.00 95 1017.8
20260903033536 68 117 0.0 0.0 0.00 0.00 0.00 95 1017.8
20260903033033 68 117 0.0 0.0 0.00 0.00 0.00 95 1017.9
20260903032535 68 117 0.0 0.0 0.00 0.00 0.00 95 1018.1
20260903032034 68 117 0.0 0.0 0.00 0.00 0.00 95 1018.2
20260903031538 68 117 0.0 0.0 0.00 0.00 0.00 95 1018.1
20260903031034 68 117 0.0 0.0 0.00 0.00 0.00 95 1018.1
20260903030534 69 117 0.0 0.0 0.00 0.00 0.00 95 1018.1
20260903030033 69 117 0.0 0.0 0.00 0.00 0.00 94 1018.2
20260903025535 69 117 0.0 0.0 0.00 0.00 0.00 94 1018.3
20260903025031 69 117 0.0 0.0 0.00 0.00 0.00 94 1018.3
20260903024531 69 117 0.0 0.0 0.00 0.00 0.00 94 1018.3
20260903024033 69 117 0.0 0.0 0.00 0.00 0.00 94 1018.4
20260903023530 69 117 0.0 0.0 0.00 0.00 0.00 94 1018.3
20260903023030 69 117 0.0 0.0 0.00 0.00 0.00 94 1018.2
20260903022531 69 117 0.0 0.0 0.00 0.00 0.00 94 1018.2
20260903022029 70 117 0.0 0.0 0.00 0.00 0.00 94 1018.1
20260903021529 70 117 0.0 0.0 0.00 0.00 0.00 93 1018.1
20260903021028 70 117 0.0 0.0 0.00 0.00 0.00 93 1018.1
20260903020532 70 117 0.0 0.0 0.00 0.00 0.00 93 1018.1
20260903020046 70 117 0.0 0.0 0.00 0.00 0.00 93 1018.2
20260903015531 70 117 0.0 0.0 0.00 0.00 0.00 92 1018.1
20260903015027 71 117 0.0 0.0 0.00 0.00 0.00 92 1018.0
20260903014026 71 117 0.0 0.0 0.00 0.00 0.00 92 1018.0
20260903013529 71 117 0.0 0.0 0.00 0.00 0.00 92 1018.0
20260903013025 71 117 0.0 0.0 0.00 0.00 0.00 92 1017.9
20260903012525 71 117 0.0 0.0 0.00 0.00 0.00 92 1018.0
20260903012029 71 117 0.0 0.0 0.00 0.00 0.00 92 1017.9
20260903011525 71 117 0.0 0.0 0.00 0.00 0.00 91 1017.8
20260903011026 71 117 0.0 0.0 0.00 0.00 0.00 91 1017.7
20260903010525 72 117 0.0 0.0 0.00 0.00 0.00 91 1017.6
20260903010025 72 117 0.0 0.0 0.00 0.00 0.00 90 1017.5
20260903005526 72 117 0.0 0.0 0.00 0.00 0.00 90 1017.5
20260903005024 72 117 0.0 0.0 0.00 0.00 0.00 90 1017.4
20260903004526 73 117 0.0 0.0 0.00 0.00 0.00 90 1017.4
20260903004024 73 117 0.0 1.0 0.00 0.00 0.00 89 1017.3
20260903003524 73 117 0.0 1.0 0.00 0.00 0.00 89 1017.2
20260903003023 73 117 0.0 1.0 0.00 0.00 0.00 89 1017.2
20260903002523 74 117 0.0 1.0 0.00 0.00 0.00 88 1017.1
20260903002023 74 117 0.0 1.0 0.00 0.00 0.00 88 1017.1
20260903001523 74 117 0.0 1.0 0.00 0.00 0.00 87 1017.1
20260903001023 75 118 0.0 2.0 0.00 0.00 0.00 87 1017.1
20260903000523 75 117 0.0 2.0 0.00 0.00 0.00 86 1017.1
20260903000023 76 128 0.0 1.0 0.00 0.00 0.00 85 1017.2
20260902235523 76 140 0.0 1.0 0.00 0.00 0.00 83 1017.1
20260902235021 77 160 0.0 0.0 0.00 0.00 0.00 81 1017.0
20260902234522 78 160 0.0 0.0 0.00 0.00 0.00 79 1017.0
20260902234022 78 160 0.0 0.0 0.00 0.00 0.00 78 1017.0
20260902233521 79 160 0.0 0.0 0.00 0.00 0.00 77 1017.0
20260902233021 79 160 0.0 0.0 0.00 0.00 0.00 76 1017.0
20260902232521 79 160 0.0 0.0 0.00 0.00 0.00 75 1017.0
20260902232020 80 160 0.0 0.0 0.00 0.00 0.00 73 1017.0
20260902231521 80 203 0.0 0.0 0.00 0.00 0.00 73 1016.9
20260902231021 80 203 0.0 1.0 0.00 0.00 0.00 73 1016.9
20260902230520 80 203 0.0 2.0 0.00 0.00 0.00 72 1016.8
20260902230019 81 204 0.0 2.0 0.00 0.00 0.00 71 1016.8
20260902225519 81 195 0.0 2.0 0.00 0.00 0.00 71 1016.8
20260902225023 81 240 0.0 3.0 0.00 0.00 0.00 70 1016.8
20260902224520 81 140 0.0 3.0 0.00 0.00 0.00 69 1016.8
20260902224019 82 148 1.0 5.0 0.00 0.00 0.00 68 1016.9
20260902223519 82 138 1.0 5.0 0.00 0.00 0.00 69 1016.9
20260902223027 82 165 2.0 5.0 0.00 0.00 0.00 68 1016.8
20260902222518 82 167 2.0 5.0 0.00 0.00 0.00 67 1016.8
20260902222018 83 199 2.0 4.0 0.00 0.00 0.00 67 1016.9
20260902221520 83 203 1.0 5.0 0.00 0.00 0.00 66 1017.0
20260902221017 84 160 2.0 5.0 0.00 0.00 0.00 65 1017.0
20260902220517 85 188 1.0 5.0 0.00 0.00 0.00 65 1017.0
20260902220021 85 187 0.0 4.0 0.00 0.00 0.00 65 1017.0
20260902215517 85 185 0.0 3.0 0.00 0.00 0.00 64 1017.0
20260902215017 85 200 1.0 3.0 0.00 0.00 0.00 64 1016.9
20260902214517 85 141 0.0 3.0 0.00 0.00 0.00 64 1016.9
20260902214015 85 178 1.0 3.0 0.00 0.00 0.00 63 1017.0
20260902213515 85 162 0.0 3.0 0.00 0.00 0.00 64 1016.9
20260902213015 85 138 0.0 2.0 0.00 0.00 0.00 67 1016.9
20260902212516 85 120 1.0 0.0 0.00 0.00 0.00 65 1017.0
20260902212018 85 200 0.0 3.0 0.00 0.00 0.00 64 1016.9
20260902211515 85 194 0.0 4.0 0.00 0.00 0.00 65 1016.9
20260902211018 85 174 1.0 7.0 0.00 0.00 0.00 64 1016.9
20260902210516 85 184 3.0 7.0 0.00 0.00 0.00 64 1016.8
20260902210019 86 181 2.0 5.0 0.00 0.00 0.00 62 1016.9
20260902205518 86 142 2.0 5.0 0.00 0.00 0.00 62 1016.9
20260902205014 86 212 2.0 5.0 0.00 0.00 0.00 62 1016.9
20260902204513 87 176 3.0 5.0 0.00 0.00 0.00 61 1017.0
20260902204011 87 203 2.0 4.0 0.00 0.00 0.00 59 1017.0
20260902203514 88 164 2.0 4.0 0.00 0.00 0.00 58 1017.0
20260902203011 89 200 0.0 2.0 0.00 0.00 0.00 58 1017.0
20260902202511 89 250 1.0 2.0 0.00 0.00 0.00 57 1017.0
20260902202009 88 206 0.0 3.0 0.00 0.00 0.00 60 1017.1
20260902201517 87 146 0.0 4.0 0.00 0.00 0.00 58 1017.1
20260902201009 87 124 1.0 4.0 0.00 0.00 0.00 58 1017.2
20260902200508 87 121 2.0 3.0 0.00 0.00 0.00 56 1017.2
20260902200007 87 10 0.0 4.0 0.00 0.00 0.00 53 1017.3
20260902195507 89 349 2.0 4.0 0.00 0.00 0.00 48 1017.3
20260902195006 90 214 0.0 3.0 0.00 0.00 0.00 47 1017.2
20260902194506 90 236 0.0 4.0 0.00 0.00 0.00 49 1017.3
20260902194005 91 212 0.0 1.0 0.00 0.00 0.00 48 1017.5
20260902193504 91 114 0.0 3.0 0.00 0.00 0.00 49 1017.6
20260902193003 90 118 1.0 4.0 0.00 0.00 0.00 49 1017.6
20260902192503 91 196 1.0 4.0 0.00 0.00 0.00 46 1017.6
20260902192006 93 187 0.0 1.0 0.00 0.00 0.00 45 1017.7
20260902191501 93 238 0.0 1.0 0.00 0.00 0.00 44 1017.7
20260902191100 92 240 0.0 3.0 0.00 0.00 0.00 45 1017.9
20260902190558 91 165 0.0 3.0 0.00 0.00 0.00 49 1017.9
20260902190057 91 129 0.0 5.0 0.00 0.00 0.00 51 1017.8
20260902185555 90 203 1.0 5.0 0.00 0.00 0.00 48 1018.0
20260902185056 90 160 0.0 2.0 0.00 0.00 0.00 51 1018.1
20260902184557 89 201 0.0 2.0 0.00 0.00 0.00 48 1018.2
20260902184057 89 265 0.0 2.0 0.00 0.00 0.00 50 1018.2